Погода в Грютвикене

Южная Георгия и Южные Сандвичевы острова     54°17′29″S   36°29′37″W
темп.,
°C
ветер,
м/с
пор.,
м/с
влажн.,
%
обл.,
%
осадки,
мм/ч
давл.,
гПа
погр.,
м
9 августа, вт
вт901:00−3юз566512 0.0 1017258
04:00−2зюз577556 0.2 1017339
07:00−2юз467489 0.3 1017367
10:00−2зюз467088 0.4 1017473
13:00−2юз566989 0.1 1015324
16:00−2зюз467487 0.3 1015278
19:00−2зюз347953 0.1 101585
22:00−2юз338464 0.6 101479
10 августа, ср
ср1001:00−2юз447911 0.1 101456
04:00−4ююз457914 0.1 101586
07:00−4ююз457810 0.0 101688
10:00−3ююз447510 0.0 101686
13:00−2ююз33728 0.0 1016122
16:00−2ю337312 0.0 101669
19:00−3ююз337614 0.0 101730
22:00−3ю21789 0.0 101716
11 августа, чт
чт1101:00−3ю11793 0.0 101715
04:00−4зюз227931 0.0 101728
07:00−3з229052 0.0 101725
10:00−2зсз229689 0.1 101783
13:00−1сз3499100 0.4 1016138
16:00−1зсз3599100 0.6 1015115
19:00−1зсз349796 0.0 101470
22:000зсз339595 0.1 101340
12 августа, пт
пт1201:000з239493 0.0 101223
04:000зюз229096 0.0 101115
07:000з229495 0.0 101113
10:00+1зсз2397100 0.0 101036
13:00+2зсз3494100 0.0 100978
16:00+1зсз3494100 0.1 100941
19:00+1зсз5696100 0.6 100960
22:00+1зсз569547 0.6 100871
13 августа, сб
сб1301:00+1зсз569436 0.0 100870
04:00+1зюз4590100 0.0 100948
07:00+1юз3387100 0.0 100923
10:00+1зсз229385 0.0 100919
13:00+1сз349873 0.0 100878
16:00+1сз4499100 0.0 100754
19:00+1зсз5597100 0.0 100659
22:00+1сз45100100 0.3 100465